"2009-01-19 00:00:00",553317,13.97,31.91,6.288,1.563,14.92,104.9366,11.91,13.14,10.71,0,110.3,13.31,12.70,353.9
"2009-01-19 00:00:30",553318,12.92,34.65,6.327,1.294,14.21,104.9381,11.91,13.09,10.61,0,110.3,13.31,12.71,356.6
"2009-01-19 00:01:00",553319,12.75,34.79,6.292,1.458,14.09,104.9396,11.92,13.01,10.66,0,110.3,13.31,12.71,356.8
"2009-01-19 00:01:30",553320,12.04,28.96,5.833,1.373,13.05,104.9385,11.92,12.97,10.66,0,110.3,13.31,12.71,351.0
"2009-01-19 00:02:00",553321,11.86,30.32,6.413,1.483,13.2,104.9275,11.89,12.95,10.65,0,110.3,13.31,12.68,352.3
"2009-01-19 00:02:30",553322,12.33,31.35,6.64,1.371,13.63,104.9095,11.84,12.97,10.74,0,110.3,13.31,12.63,353.4
"2009-01-19 00:03:00",553323,12.8,38.15,4.819,1.23,15.63,104.9066,11.83,13.04,10.83,0,110.3,13.31,12.63,0.2
"2009-01-19 00:03:30",553324,11.77,34.74,6.116,1.55,13.9,104.9069,11.83,13.02,10.85,0,110.3,13.31,12.63,356.7
"2009-01-19 00:04:00",553325,12.59,36.55,6.875,1.228,14.45,104.9064,11.83,12.89,10.7,0,110.3,13.31,12.63,358.5
"2009-01-19 00:04:30",553326,11.42,31.11,5.571,1.269,12.22,104.8957,11.81,12.88,10.71,0,110.3,13.31,12.60,353.1
"2009-01-19 00:05:00",553327,12.56,36.77,7.625,1.342,14.14,104.8866,11.78,12.84,10.7,0,110.3,13.31,12.58,358.8
"2009-01-19 00:05:30",553328,12.35,33.5,6.721,1.33,14.21,104.8762,11.76,12.91,10.73,0,110.3,13.31,12.55,355.5
"2009-01-19 00:06:00",553329,12.18,34.85,6.355,1.443,14.53,104.8731,11.75,12.98,10.74,0,110.3,13.31,12.54,356.9
"2009-01-19 00:06:30",553330,12.89,34.49,6.005,1.517,14.81,104.8731,11.75,12.92,10.66,0,110.3,13.31,12.54,356.5
"2009-01-19 00:07:00",553331,12.67,33.79,6.903,1.227,14.73,104.8731,11.75,12.89,10.57,0,110.3,13.31,12.54,355.8
"2009-01-19 00:07:30",553332,10.9,28.41,5.905,1.279,12.63,104.8731,11.75,12.84,10.53,0,110.3,13.31,12.54,350.4
"2009-01-19 00:08:00",553333,11.3,28.95,6.533,0.988,12.29,104.8731,11.75,12.77,10.48,0,110.2,13.31,12.54,351.0
"2009-01-19 00:08:30",553334,12.27,31.59,7.33,1.429,13.6,104.8731,11.75,12.85,10.62,0,110.3,13.31,12.54,353.6
"2009-01-19 00:09:00",553335,12.29,32.6,6.489,1.418,14.1,104.8731,11.75,12.82,10.6,0,110.3,13.31,12.54,354.6
"2009-01-19 00:09:30",553336,12.72,37.44,6.297,0.998,15.71,104.8731,11.75,13.01,10.77,0,110.2,13.31,12.54,359.4
"2009-01-19 00:10:00",553337,11.74,35.88,6.487,1.347,14.27,104.8731,11.75,12.86,10.6,0,110.2,13.31,12.54,357.9
"2009-01-19 00:10:30",553338,11.5,32.2,7.254,1.196,13.03,104.8731,11.75,12.79,10.5,0,110.2,13.31,12.54,354.2
"2009-01-19 00:11:00",553339,11.76,31.57,6.4,1.158,13.01,104.8725,11.75,12.83,10.57,0,110.2,13.31,12.54,353.6
"2009-01-19 00:11:30",553340,10.68,27.57,0.988,0.305,11.43,104.8697,11.74,12.77,10.57,0,110.2,13.35,12.53,349.6
"2009-01-19 00:12:00",553341,12.61,37.14,6.377,1.208,15,104.8649,11.73,12.84,10.64,0,110.2,13.32,12.52,359.1
"2009-01-19 00:12:30",553342,12.74,37.72,6.231,1.351,15.49,104.8621,11.72,12.93,10.73,0,110.2,13.32,12.51,359.7
"2009-01-19 00:13:00",553343,13.01,38.09,5.393,1.207,15.11,104.857,11.71,12.94,10.71,0,110.2,13.32,12.50,0.1
"2009-01-19 00:13:30",553344,12.9,34.71,6.363,1.386,14.67,104.8542,11.7,12.92,10.71,0,110.2,13.32,12.49,356.7
"2009-01-19 00:14:00",553345,12.72,29.51,6.122,1.517,12.97,104.8517,11.69,12.8,10.58,0,110.2,13.32,12.49,351.5
"2009-01-19 00:14:30",553346,12.16,27.4,3.9,1.204,11.95,104.8503,11.69,12.66,10.38,0,110.2,13.32,12.48,349.4
"2009-01-19 00:15:00",553347,12.84,27.98,6.398,1.325,13.8,104.8588,11.71,12.82,10.48,0,110.2,13.33,12.50,350.0
"2009-01-19 00:15:30",553348,12.5,33.54,7.685,1.218,14.95,104.8695,11.74,12.89,10.48,0,110.2,13.33,12.53,355.5
"2009-01-19 00:16:00",553349,14.37,36.48,4.083,1.472,16,104.875,11.75,12.96,10.56,0,110.2,13.33,12.55,358.5
"2009-01-19 00:16:30",553350,13.24,32.1,6.338,1.624,14.29,104.8787,11.76,12.81,10.45,0,110.2,13.33,12.56,354.1
"2009-01-19 00:17:00",553351,12.35,32.68,6.823,1.168,13.38,104.8799,11.77,12.8,10.45,0,110.2,13.33,12.56,354.7
"2009-01-19 00:17:30",553352,12.41,32.3,6.555,1.196,13.47,104.8808,11.77,12.83,10.46,0,110.2,13.33,12.56,354.3
"2009-01-19 00:18:00",553353,10.78,26.65,1.647,0.675,11.7,104.8817,11.77,12.8,10.36,0,110.2,13.36,12.56,348.6
"2009-01-19 00:18:30",553354,12.66,36.53,6.558,1.356,15.52,104.882,11.77,12.92,10.47,0,110.2,13.33,12.56,358.5
"2009-01-19 00:19:00",553355,11.85,35.33,6.816,1.322,14.7,104.8823,11.77,12.96,10.48,0,110.2,13.33,12.56,357.3
"2009-01-19 00:19:30",553356,12.37,36.25,6.809,1.043,15.11,104.8834,11.77,12.9,10.39,0,110.2,13.33,12.57,358.2
"2009-01-19 00:20:00",553357,12.42,37.2,6.343,1.437,15.02,104.8846,11.78,12.93,10.4,0,110.2,13.33,12.57,359.2
"2009-01-19 00:20:30",553358,11.99,35.79,6.982,1.245,13.63,104.8849,11.78,12.82,10.29,0,110.2,13.33,12.57,357.8
"2009-01-19 00:21:00",553359,11.21,31.75,6.1,1.148,12.5,104.8861,11.78,12.78,10.38,0,110.2,13.33,12.57,353.8
"2009-01-19 00:21:30",553360,12.38,36.43,6.665,1.323,14.29,104.8876,11.78,12.85,10.47,0,110.2,13.33,12.58,358.4
"2009-01-19 00:22:00",553361,12.58,35.9,6.339,1.183,14.65,104.8891,11.79,12.91,10.52,0,110.2,13.33,12.58,357.9
"2009-01-19 00:22:30",553362,12.87,38.44,5.971,1.114,15.15,104.8903,11.79,12.83,10.37,0,110.2,13.32,12.58,0.4
"2009-01-19 00:23:00",553363,12.3,36.98,6.424,1.274,14.51,104.8944,11.8,12.97,10.59,0,110.2,13.32,12.60,359.0
"2009-01-19 00:23:30",553364,12.86,39.22,6.083,1.278,14.82,104.8931,11.8,12.91,10.53,0,110.2,13.32,12.59,1.2
"2009-01-19 00:24:00",553365,12.07,32.11,5.882,1.224,12.22,104.8888,11.79,12.7,10.36,0,110.2,13.32,12.58,354.1
"2009-01-19 00:24:30",553366,11.6,31.83,5.188,0.997,12.63,104.8841,11.78,12.86,10.49,0,110.2,13.33,12.57,353.8
"2009-01-19 00:25:00",553367,12.92,38.38,5.845,1.165,15.14,104.8729,11.75,12.95,10.62,0,110.2,13.32,12.54,0.4
"2009-01-19 00:25:30",553368,11.55,30.6,4.883,0.992,11.87,104.8676,11.73,12.75,10.49,0,110.2,13.32,12.53,352.6
"2009-01-19 00:26:00",553369,12.89,39.35,5.912,1.168,15.47,104.8671,11.73,13.01,10.76,0,110.2,13.32,12.53,1.3
"2009-01-19 00:26:30",553370,13.04,39.08,6.196,1.111,15.06,104.8679,11.73,12.94,10.7,0,110.2,13.32,12.53,1.1
"2009-01-19 00:27:00",553371,12.4,35.79,6.789,1.524,13.31,104.8721,11.75,12.71,10.47,0,110.2,13.32,12.54,357.8
"2009-01-19 00:27:30",553372,11.3,31.8,5.168,1.068,12.33,104.8642,11.72,12.78,10.59,0,110.2,13.33,12.52,353.8
"2009-01-19 00:28:00",553373,11.98,34.5,6.625,1.351,13.84,104.8583,11.71,12.77,10.57,0,110.2,13.33,12.50,356.5
"2009-01-19 00:28:30",553374,11.67,33.89,6.909,1.344,13.66,104.849,11.69,12.81,10.55,0,110.2,13.33,12.48,355.9
"2009-01-19 00:29:00",553375,12.41,36.1,6.934,1.242,13.64,104.8406,11.66,12.76,10.54,0,110.2,13.33,12.46,358.1
"2009-01-19 00:29:30",553376,12.81,39.6,4.933,0.99,15.33,104.8406,11.66,12.86,10.72,0,110.2,13.33,12.46,1.6
"2009-01-19 00:30:00",553377,12.37,37.09,6.493,1.306,14.5,104.8409,11.67,12.85,10.72,0,110.2,13.33,12.46,359.1
"2009-01-19 00:30:30",553378,11.41,30.89,5.175,1.22,11.87,104.8409,11.67,12.68,10.58,0,110.2,13.33,12.46,352.9
"2009-01-19 00:31:00",553379,11.71,33,6.809,1.417,13.51,104.8403,11.66,12.63,10.49,0,110.2,13.33,12.46,355.0
"2009-01-19 00:31:30",553380,10.39,26.63,1.209,0.313,11.62,104.8381,11.66,12.66,10.47,0,110.2,13.33,12.45,348.6
"2009-01-19 00:32:00",553381,12.05,35.46,6.621,1.461,14.67,104.8347,11.65,12.76,10.54,0,110.2,13.33,12.44,357.5
"2009-01-19 00:32:30",553382,12.79,38.42,5.719,1.16,15.5,104.8302,11.64,12.8,10.7,0,110.2,13.33,12.43,0.4
"2009-01-19 00:33:00",553383,12.58,36.68,6.288,1.247,14.75,104.8234,11.62,12.81,10.73,0,110.2,13.33,12.41,358.7
"2009-01-19 00:33:30",553384,12.62,37.9,5.936,1.179,14.93,104.8149,11.6,12.85,10.82,0,110.2,13.33,12.39,359.9
"2009-01-19 00:34:00",553385,11.43,31.08,5.279,1.229,12.05,104.8093,11.58,12.62,10.63,0,110.2,13.34,12.38,353.1
"2009-01-19 00:34:30",553386,12.18,34.69,6.568,1.592,13.62,104.807,11.58,12.6,10.63,0,110.2,13.33,12.37,356.7
"2009-01-19 00:35:00",553387,10.87,29.63,3.123,0.934,11.75,104.807,11.58,12.64,10.72,0,110.2,13.33,12.37,351.6
"2009-01-19 00:35:30",553388,12.94,38.24,5.812,1.358,15.46,104.807,11.58,12.73,10.82,0,110.2,13.33,12.37,0.2
"2009-01-19 00:36:00",553389,13.33,40.63,4.14,0.929,15.59,104.807,11.58,12.83,10.89,0,110.2,13.34,12.37,2.6
"2009-01-19 00:36:30",553390,12.72,38.64,6.177,1.197,14.62,104.807,11.58,12.76,10.84,0,110.2,13.34,12.37,0.6
"2009-01-19 00:37:00",553391,12.7,36.27,7.038,1.44,14.15,104.807,11.58,12.74,10.89,0,110.2,13.33,12.37,358.3
"2009-01-19 00:37:30",553392,11.17,29.31,4.748,1.14,11.78,104.807,11.58,12.5,10.6,0,110.2,13.33,12.37,351.3
"2009-01-19 00:38:00",553393,11.1,25.66,1.323,0.303,11.41,104.8068,11.58,12.51,10.56,0,110.2,13.37,12.37,347.7
"2009-01-19 00:38:30",553394,12.52,33.98,7.238,1.487,14.41,104.8068,11.58,12.74,10.8,0,110.2,13.33,12.37,356.0
"2009-01-19 00:39:00",553395,12.67,34.54,6.491,1.133,15.2,104.8068,11.58,12.76,10.81,0,110.2,13.33,12.37,356.5
"2009-01-19 00:39:30",553396,13.24,36.64,5.941,1.086,14.93,104.8048,11.57,12.73,10.82,0,110.2,13.33,12.37,358.6
"2009-01-19 00:40:00",553397,13.38,34.23,6.499,1.214,14.84,104.8048,11.57,12.73,10.83,0,110.2,13.33,12.37,356.2
"2009-01-19 00:40:30",553398,12.48,31.58,5.59,1.832,12.89,104.8048,11.57,12.55,10.63,0,110.2,13.33,12.37,353.6
"2009-01-19 00:41:00",553399,11.29,28.31,4.057,0.912,11.64,104.8048,11.57,12.49,10.59,0,110.2,13.33,12.37,350.3
"2009-01-19 00:41:30",553400,12.74,32.95,6.579,1.5,14.04,104.802,11.57,12.67,10.8,0,110.2,13.33,12.36,355.0
"2009-01-19 00:42:00",553401,13.26,33.52,6.337,1.311,15.21,104.8028,11.57,12.75,10.82,0,110.2,13.33,12.36,355.5
"2009-01-19 00:42:30",553402,13.53,38.4,4.156,0.942,15.71,104.8053,11.57,12.68,10.74,0,110.2,13.33,12.37,0.4
"2009-01-19 00:43:00",553403,12.73,35.37,6.553,1.407,14.09,104.8045,11.57,12.74,10.84,0,110.2,13.33,12.36,357.4
"2009-01-19 00:43:30",553404,12.87,32.26,6.775,1.325,13.81,104.8003,11.56,12.64,10.73,0,110.2,13.33,12.35,354.3
"2009-01-19 00:44:00",553405,11.2,26.05,0.888,0.356,11.11,104.8011,11.56,12.5,10.56,0,110.2,13.36,12.36,348.0
"2009-01-19 00:44:30",553406,12.88,31.53,6.861,1.442,13.91,104.7991,11.56,12.65,10.76,0,110.2,13.34,12.35,353.5
"2009-01-19 00:45:00",553407,13.07,33.02,6.731,1.307,14.97,104.8008,11.56,12.74,10.82,0,110.1,13.34,12.36,355.0
"2009-01-19 00:45:30",553408,13.34,35.94,5.915,1.162,15.24,104.8014,11.56,12.7,10.79,0,110.2,13.34,12.36,357.9
"2009-01-19 00:46:00",553409,13.63,34.65,5.925,1.211,15.16,104.7986,11.56,12.76,10.87,0,110.2,13.34,12.35,356.6
"2009-01-19 00:46:30",553410,13.17,33.3,6.819,1.167,13.81,104.798,11.56,12.66,10.76,0,110.2,13.34,12.35,355.3
"2009-01-19 00:47:00",553411,11.51,26.64,2.459,0.548,11.45,104.7958,11.55,12.56,10.67,0,110.2,13.37,12.34,348.6
"2009-01-19 00:47:30",553412,12.42,27.55,5.282,0.896,12.42,104.7926,11.54,12.62,10.72,0,110.2,13.34,12.33,349.5
"2009-01-19 00:48:00",553413,14.45,34.07,6.023,1.3,15.33,104.7966,11.55,12.74,10.78,0,110.2,13.34,12.34,356.1
"2009-01-19 00:48:30",553414,14.58,33.41,6.108,1.058,15.18,104.7994,11.56,12.72,10.77,0,110.2,13.34,12.35,355.4
"2009-01-19 00:49:00",553415,14.7,32.79,6.157,1.377,15.43,104.8042,11.57,12.73,10.77,0,110.2,13.34,12.36,354.8
"2009-01-19 00:49:30",553416,13.95,34.09,5.99,1.357,15,104.807,11.58,12.73,10.7,0,110.2,13.34,12.37,356.1
"2009-01-19 00:50:00",553417,12.05,25.85,3.437,0.847,11.48,104.807,11.58,12.54,10.52,0,110.2,13.34,12.37,347.9
"2009-01-19 00:50:30",553418,13.45,28.59,6.677,1.356,13.16,104.807,11.58,12.55,10.52,0,110.2,13.34,12.37,350.6
"2009-01-19 00:51:00",553419,13.8,29.04,6.585,1.507,14.05,104.8124,11.59,12.66,10.6,0,110.2,13.34,12.38,351.0
"2009-01-19 00:51:30",553420,13.89,33.68,6.204,1.081,15.24,104.8372,11.66,12.82,10.74,0,110.2,13.34,12.45,355.7
"2009-01-19 00:52:00",553421,13.11,35.34,6.295,1.094,15.03,104.8406,11.66,12.74,10.75,0,110.2,13.34,12.46,357.3
"2009-01-19 00:52:30",553422,15.27,34.37,5.54,0.979,15.59,104.8392,11.66,12.82,10.87,0,110.2,13.34,12.45,356.4
"2009-01-19 00:53:00",553423,14.52,29.76,7.301,1.334,13.78,104.8395,11.66,12.69,10.76,0,110.2,13.34,12.45,351.8
"2009-01-19 00:53:30",553424,13.45,29.9,6.929,1.292,13.75,104.8409,11.67,12.83,10.84,0,110.2,13.34,12.46,351.9
"2009-01-19 00:54:00",553425,13.14,24.76,4.152,0.848,11.97,104.8409,11.67,12.65,10.65,0,110.2,13.34,12.46,346.8
"2009-01-19 00:54:30",553426,13.34,29.56,7.134,1.264,13.64,104.8409,11.67,12.7,10.66,0,110.2,13.34,12.46,351.6
"2009-01-19 00:55:00",553427,14.09,33.81,5.801,1.208,15.43,104.8409,11.67,12.82,10.81,0,110.2,13.34,12.46,355.8
"2009-01-19 00:55:30",553428,12.91,34.65,5.829,1.335,15.26,104.8409,11.67,12.81,10.85,0,110.2,13.34,12.46,356.6
"2009-01-19 00:56:00",553429,14.24,33.1,5.928,1.317,15.13,104.8409,11.67,12.82,10.91,0,110.2,13.34,12.46,355.1
"2009-01-19 00:56:30",553430,12.13,29.46,7.969,0.969,12.86,104.8409,11.67,12.79,10.9,0,110.2,13.33,12.46,351.5
"2009-01-19 00:57:00",553431,12.37,26.22,6.121,1.168,12.31,104.8398,11.66,12.62,10.73,0,110.2,13.33,12.46,348.2
"2009-01-19 00:57:30",553432,13.13,30.35,7.069,1.501,13.92,104.8307,11.64,12.75,10.88,0,110.2,13.33,12.43,352.4
"2009-01-19 00:58:00",553433,13.51,30.91,6.382,1.738,13.91,104.8155,11.6,12.62,10.8,0,110.2,13.33,12.39,352.9
"2009-01-19 00:58:30",553434,13.96,32.38,6.198,1.195,15.3,104.8079,11.58,12.76,10.98,0,110.2,13.33,12.37,354.4
"2009-01-19 00:59:00",553435,13.83,30.28,6.342,1.858,14.09,104.807,11.58,12.76,10.99,0,110.2,13.34,12.37,352.3
"2009-01-19 00:59:30",553436,14.02,36.01,4.184,1.058,15.71,104.807,11.58,12.75,11.02,0,110.2,13.33,12.37,358.0
"2009-01-19 01:00:00",553437,12.66,29.36,6.604,1.803,13.05,104.807,11.58,12.64,10.94,0,110.2,13.34,12.37,351.4
"2009-01-19 01:00:30",553438,12.83,29.62,7.783,1.41,13.19,104.807,11.58,12.71,11.05,0,110.2,13.34,12.37,351.6
"2009-01-19 01:01:00",553439,12.85,29.46,6.145,1.403,12.92,104.8065,11.58,12.6,10.98,0,110.2,13.34,12.37,351.5
"2009-01-19 01:01:30",553440,13.84,29.63,5.988,1.603,14.05,104.802,11.57,12.7,11.12,0,110.2,13.34,12.36,351.6
"2009-01-19 01:02:00",553441,12.93,28.13,6.914,1.245,13.45,104.787,11.53,12.59,11,0,110.2,13.34,12.32,350.1
"2009-01-19 01:02:30",553442,13.81,31.62,5.072,0.9,15.44,104.774,11.49,12.73,11.13,0,110.2,13.34,12.29,353.6
"2009-01-19 01:03:00",553443,13.65,29.19,6.861,1.371,14.16,104.7732,11.49,12.63,11.08,0,110.2,13.34,12.28,351.2
"2009-01-19 01:03:30",553444,14.03,26.58,6.155,1.41,13.28,104.7732,11.49,12.66,11.08,0,110.2,13.34,12.28,348.6
"2009-01-19 01:04:00",553445,14.51,27.48,6.274,1.335,13.71,104.7732,11.49,12.54,10.98,0,110.2,13.34,12.28,349.5
"2009-01-19 01:04:30",553446,12.67,23.56,7.662,1.536,12.89,104.7732,11.49,12.59,11.06,0,110.2,13.34,12.28,345.6
"2009-01-19 01:05:00",553447,12.28,28.38,6.639,1.392,13.01,104.7732,11.49,12.5,10.97,0,110.2,13.34,12.28,350.4
"2009-01-19 01:05:30",553448,14.28,31.52,6.752,1.613,15.17,104.7715,11.49,12.65,11.19,0,110.2,13.34,12.28,353.5
"2009-01-19 01:06:00",553449,15.12,31.51,5.66,0.88,15.5,104.7673,11.48,12.69,11.2,0,110.2,13.34,12.27,353.5
"2009-01-19 01:06:30",553450,13.02,28.23,5.551,1.681,13.76,104.7653,11.47,12.6,11.15,0,110.2,13.34,12.26,350.2
"2009-01-19 01:07:00",553451,14,28.08,6.387,1.276,14.24,104.7591,11.46,12.64,11.19,0,110.2,13.34,12.25,350.1
"2009-01-19 01:07:30",553452,12.51,23.68,4.811,1.539,11.98,104.7611,11.46,12.44,11,0,110.2,13.34,12.25,345.7
"2009-01-19 01:08:00",553453,11.37,20.8,4.17,0.935,11.59,104.7656,11.47,12.43,10.98,0,110.2,13.34,12.26,342.8
"2009-01-19 01:08:30",553454,13.64,25.8,6.89,1.366,14.09,104.7605,11.46,12.54,11.19,0,110.2,13.34,12.25,347.8
"2009-01-19 01:09:00",553455,14.32,30.79,5.143,0.986,15.8,104.7667,11.48,12.58,11.23,0,110.2,13.34,12.27,352.8
"2009-01-19 01:09:30",553456,14.52,32.04,3.773,0.839,15.85,104.7667,11.48,12.69,11.3,0,110.2,13.34,12.27,354.0
"2009-01-19 01:10:00",553457,13.86,29.37,5.582,1.278,14.51,104.7676,11.48,12.62,11.23,0,110.2,13.34,12.27,351.4
"2009-01-19 01:10:30",553458,12.72,24.31,6.805,1.102,12.9,104.7677,11.48,12.51,11.12,0,110.2,13.34,12.27,346.3
"2009-01-19 01:11:00",553459,11.31,18.86,0.754,0.303,10.92,104.7668,11.48,12.37,11.01,0,110.2,13.38,12.27,340.9
"2009-01-19 01:11:30",553460,11.32,21.18,5.59,1.395,12.32,104.762,11.46,12.38,11.02,0,110.2,13.34,12.26,343.2
"2009-01-19 01:12:00",553461,11.8,27.36,6.245,1.363,15.5,104.7663,11.47,12.64,11.3,0,110.2,13.34,12.27,349.4
"2009-01-19 01:12:30",553462,10.8,27.2,6.997,1.674,15.89,104.7747,11.5,12.72,11.28,0,110.2,13.34,12.29,349.2
"2009-01-19 01:13:00",553463,10.4,24.62,6.778,1.92,14.72,104.7807,11.51,12.65,11.17,0,110.2,13.34,12.30,346.6
"2009-01-19 01:13:30",553464,8.53,16.01,6.993,1.683,11.97,104.8057,11.58,12.55,11,0,110.2,13.34,12.37,338.0
"2009-01-19 01:14:00",553465,10.19,18.22,6.611,1.755,11.53,104.8127,11.59,12.44,10.86,0,110.2,13.34,12.39,340.2
"2009-01-19 01:14:30",553466,9.12,15.27,3.625,1.152,11.18,104.8106,11.59,12.46,10.85,0,110.2,13.37,12.38,337.3
"2009-01-19 01:15:00",553467,11.03,24.16,6.187,1.344,13.64,104.812,11.59,12.64,11.04,0,110.2,13.34,12.38,346.2
"2009-01-19 01:15:30",553468,11.97,27.45,5.625,1.479,15.72,104.8112,11.59,12.75,11.2,0,110.1,13.34,12.38,349.5
"2009-01-19 01:16:00",553469,12.65,29.99,4.345,0.927,15.99,104.8022,11.57,12.77,11.29,0,110.2,13.34,12.36,352.0
"2009-01-19 01:16:30",553470,12.5,29.62,4.41,0.966,15.71,104.7909,11.54,12.75,11.27,0,110.2,13.34,12.33,351.6
"2009-01-19 01:17:00",553471,10.44,23.69,7.081,1.424,13.29,104.7855,11.52,12.62,11.12,0,110.2,13.34,12.32,345.7
"2009-01-19 01:17:30",553472,8.21,15.24,3.099,0.803,10.75,104.8,11.56,12.43,10.88,0,110.2,13.38,12.35,337.2
"2009-01-19 01:18:00",553473,7.182,14.94,1.869,0.79,10.91,104.8139,11.6,12.45,10.81,0,110.2,13.38,12.39,336.9
"2009-01-19 01:18:30",553474,6.221,11.41,3.335,0.798,11.32,104.8138,11.6,12.53,10.84,0,110.2,13.38,12.39,333.4
"2009-01-19 01:19:00",553475,8.42,22.82,8.73,1.914,14.81,104.8124,11.59,12.7,11.04,0,110.2,13.35,12.38,344.8
"2009-01-19 01:19:30",553476,10.63,25.36,6.622,1.819,16.14,104.805,11.57,12.76,11.18,0,110.2,13.35,12.37,347.4
"2009-01-19 01:20:00",553477,11.04,27.05,4.58,1.785,16.06,104.7856,11.52,12.77,11.21,0,110.2,13.35,12.32,349.0
"2009-01-19 01:20:30",553478,8.14,7.714,9.85,1.407,12.89,104.7794,11.51,12.62,11.05,0,110.2,13.35,12.30,329.7
"2009-01-19 01:21:00",553479,6.624,2.88,3.136,0.472,10.59,104.7874,11.53,12.44,10.81,0,110.2,13.38,12.32,324.9
"2009-01-19 01:21:30",553480,6.57,358.2,3.996,0.909,10.66,104.8001,11.56,12.45,10.76,0,110.2,13.38,12.35,320.2
"2009-01-19 01:22:00",553481,4.884,3.43,4.336,0.644,10.95,104.8108,11.59,12.46,10.73,0,110.2,13.39,12.38,325.4
"2009-01-19 01:22:30",553482,6.564,9.61,8.47,1.25,12.85,104.8147,11.6,12.52,10.78,0,110.2,13.35,12.39,331.6
"2009-01-19 01:23:00",553483,7.677,20.96,7.398,1.421,15.13,104.815,11.6,12.72,11.02,0,110.2,13.35,12.39,343.0
"2009-01-19 01:23:30",553484,7.898,16.53,5.949,0.824,16.23,104.8138,11.6,12.77,11.05,0,110.2,13.35,12.39,338.5
"2009-01-19 01:24:00",553485,7.2,17.05,6.25,1.318,13.64,104.8153,11.6,12.72,11.02,0,110.2,13.35,12.39,339.0
"2009-01-19 01:24:30",553486,8.63,20.72,6.429,0.985,12.18,104.7933,11.54,12.52,10.94,0,110.2,13.35,12.34,342.7
"2009-01-19 01:25:00",553487,8.46,15.98,2.275,0.839,10.19,104.7724,11.49,12.44,10.99,0,110.2,13.39,12.28,338.0
"2009-01-19 01:25:30",553488,7.797,7.177,3.563,0.515,10.82,104.7487,11.43,12.38,10.97,0,110.2,13.39,12.22,329.2
"2009-01-19 01:26:00",553489,8.46,9.91,6.997,1.216,13.82,104.7485,11.43,12.55,11.14,0,110.2,13.35,12.22,331.9
"2009-01-19 01:26:30",553490,8.54,10.73,6.955,1.062,14.87,104.7491,11.43,12.63,11.14,0,110.2,13.35,12.22,332.7
"2009-01-19 01:27:00",553491,9.06,7.136,7.484,1.534,14.76,104.757,11.45,12.63,11.06,0,110.2,13.35,12.24,329.1
"2009-01-19 01:27:30",553492,7.895,9.1,7.519,1.528,14.54,104.7672,11.48,12.58,10.96,0,110.2,13.35,12.27,331.1
"2009-01-19 01:28:00",553493,6.17,2.795,5.431,1.496,11.62,104.7813,11.51,12.39,10.72,0,110.2,13.35,12.30,324.8
"2009-01-19 01:28:30",553494,5.482,0.735,3.69,0.945,10.64,104.7838,11.52,12.41,10.66,0,110.2,13.38,12.31,322.7
"2009-01-19 01:29:00",553495,6.152,357.1,2.604,0.721,10.9,104.8025,11.57,12.44,10.57,0,110.2,13.38,12.36,319.1
"2009-01-19 01:29:30",553496,5.863,0.205,5.734,0.943,11.41,104.8189,11.61,12.51,10.63,0,110.2,13.35,12.40,322.2
"2009-01-19 01:30:00",553497,8.77,4.84,4.825,1.781,15.76,104.8215,11.62,12.71,10.77,0,110.2,13.35,12.41,326.8
"2009-01-19 01:30:30",553498,9.86,357.1,5.973,1.127,15.65,104.8365,11.65,12.71,10.68,0,110.2,13.35,12.45,319.1
"2009-01-19 01:31:00",553499,7.744,348.7,6.534,1.17,13.35,104.8576,11.71,12.67,10.5,0,110.2,13.35,12.50,310.7
"2009-01-19 01:31:30",553500,7.643,356.7,7.508,1.849,13.7,104.8843,11.78,12.73,10.47,0,110.2,13.35,12.57,318.7
"2009-01-19 01:32:00",553501,5.881,352.9,5.705,1.317,10.97,104.8916,11.79,12.68,10.41,0,110.2,13.38,12.59,314.9
"2009-01-19 01:32:30",553502,5.214,358,3.512,1.207,10.62,104.8925,11.8,12.62,10.4,0,110.1,13.38,12.59,320.0
"2009-01-19 01:33:00",553503,5.457,7.14,7.582,1.111,12.17,104.8922,11.8,12.75,10.63,0,110.2,13.35,12.59,329.1
"2009-01-19 01:33:30",553504,6.359,10.74,6.278,1.325,12.21,104.8741,11.75,12.7,10.71,0,110.2,13.35,12.54,332.7
"2009-01-19 01:34:00",553505,7.044,11.49,6.457,1.325,13.04,104.858,11.71,12.78,10.88,0,110.2,13.36,12.50,333.5
"2009-01-19 01:34:30",553506,8.97,17.03,5.924,1.192,15.31,104.8595,11.71,12.84,10.88,0,110.2,13.36,12.51,339.0
"2009-01-19 01:35:00",553507,7.487,7.918,7.253,1.56,13.55,104.861,11.72,12.73,10.72,0,110.1,13.36,12.51,329.9
"2009-01-19 01:35:30",553508,8.14,358.1,3.96,2.292,12.78,104.8592,11.71,12.76,10.68,0,110.2,13.36,12.51,320.1
"2009-01-19 01:36:00",553509,8.47,341.8,9.72,1.703,12.33,104.868,11.73,12.61,10.46,0,110.2,13.35,12.53,303.8
"2009-01-19 01:36:30",553510,6.26,353.7,5.589,1.5,12.77,104.9025,11.82,12.73,10.89,0,110.2,13.36,12.62,315.7
"2009-01-19 01:37:00",553511,7.74,337.1,5.091,0.995,12.09,104.9326,11.9,12.77,10.71,0,110.2,13.36,12.69,299.1
"2009-01-19 01:37:30",553512,9.38,350.1,5.691,1.204,13.7,104.9453,11.93,12.83,10.5,0,110.2,13.36,12.73,312.1
"2009-01-19 01:38:00",553513,9.56,351.4,6.602,1.468,13.88,104.9387,11.92,12.9,10.45,0,110.2,13.36,12.71,313.4
"2009-01-19 01:38:30",553514,8.92,353.9,7.131,1.381,13.6,104.934,11.9,12.91,10.38,0,110.2,13.36,12.70,315.9
"2009-01-19 01:39:00",553515,8.84,352.7,7.139,1.359,13.47,104.9338,11.9,12.86,10.32,0,110.2,13.36,12.70,314.7
"2009-01-19 01:39:30",553516,7.154,359.9,9.96,1.019,13.44,104.9332,11.9,12.92,10.37,0,110.2,13.36,12.70,321.9
"2009-01-19 01:40:00",553517,6.915,355,3.453,1.497,11.22,104.9309,11.9,12.75,10.38,0,110.2,13.36,12.69,317.0
"2009-01-19 01:40:30",553518,9.05,350.6,6.417,1.37,13.57,104.9157,11.86,12.96,10.66,0,110.1,13.36,12.65,312.6
"2009-01-19 01:41:00",553519,7.863,8.82,10.64,2.076,14.43,104.9191,11.87,12.93,11.25,0,110.2,13.36,12.66,330.8
"2009-01-19 01:41:30",553520,6.218,5.187,5.045,1.277,11.29,104.8987,11.81,12.7,11.04,0,110.2,13.36,12.61,327.2
"2009-01-19 01:42:00",553521,7.794,355.8,4.151,1.2,11.04,104.9005,11.82,12.74,10.94,0,110.2,13.39,12.61,317.8
"2009-01-19 01:42:30",553522,10.11,344.4,9.46,1.508,13.88,104.902,11.82,12.84,10.82,0,110.2,13.36,12.61,306.4
"2009-01-19 01:43:00",553523,9.47,345.4,8.16,1.238,15.38,104.9065,11.83,12.9,10.82,0,110.2,13.36,12.63,307.4
"2009-01-19 01:43:30",553524,7.932,346.7,7.717,1.395,12.71,104.9337,11.9,12.8,10.83,0,110.2,13.36,12.70,308.7
"2009-01-19 01:44:00",553525,9.32,359.7,5.575,1.585,14.96,104.9282,11.89,12.96,10.8,0,110.2,13.36,12.68,321.7
"2009-01-19 01:44:30",553526,6.408,5.833,6.803,1.43,12.98,104.9065,11.83,12.95,10.72,0,110.1,13.36,12.63,327.8
"2009-01-19 01:45:00",553527,8.67,358.5,9.58,2.023,12.46,104.8972,11.81,12.81,10.59,0,110.2,13.35,12.60,320.5
"2009-01-19 01:45:30",553528,7.812,346.2,2.389,0.584,11.06,104.9024,11.82,12.68,10.48,0,110.2,13.39,12.62,308.2
"2009-01-19 01:46:00",553529,8.35,348.8,6.505,1.66,11.7,104.9142,11.85,12.7,11.35,0,110.2,13.39,12.65,310.8
"2009-01-19 01:46:30",553530,8.66,1.1,10.48,1.051,14.08,104.9377,11.91,12.76,11.63,0,110.2,13.35,12.71,323.1
"2009-01-19 01:47:00",553531,9.88,356.5,6.327,1.141,15.47,104.9325,11.9,13,11.43,0,110.2,13.35,12.69,318.5
"2009-01-19 01:47:30",553532,10.66,355.7,6.548,0.72,16.13,104.9156,11.86,13.02,11.1,0,110.2,13.35,12.65,317.7
"2009-01-19 01:48:00",553533,10.3,345.5,7.713,1.259,14.56,104.9057,11.83,13,11.16,0,110.2,13.35,12.62,307.5